[[{"header":{"parameterUnit":"m.s-1","parameterCategory":1,"la1":30.2991,"la2":30.254,"lo1":-89.0895,"lo2":-89.0444,"dy":0.0017,"dx":0.0017,"nx":28,"ny":28,"refTime":"2024-04-14T09:00:00:Z","depth":0,"parameterNumber":2,"parameterNumberName":"U-component_of_WINDS"},"data":[0,0,0,0,0,0,0,0,0,0,0,0,0,0,0,0,0,0,0,0,0,0,0,0,0,0,0,0,0,0,0,0,0,0,0,0,0,0,0,0,0,0,0,0,0,0,0,0,0,0,0,0,0,0,0,0,0,0,-2.411,-2.4109,0,-2.4075,-2.4075,-2.4074,-2.4016,-2.4014,-2.4013,-2.4012,-2.3977,-2.3977,-2.3977,0,0,0,0,0,0,0,0,0,0,0,0,0,-2.4125,-2.4125,-2.411,-2.4109,-2.4109,-2.4075,-2.4075,-2.4074,-2.4016,-2.4014,-2.4013,-2.4012,-2.3977,-2.3977,-2.3977,0,0,0,0,0,0,0,0,0,0,0,0,0,-2.4107,-2.4125,-2.411,-2.4075,-2.4072,-2.4075,-2.4075,-2.4074,-2.4016,-2.4014,-2.4013,-2.4011,-2.3977,-2.3977,-2.3977,-2.401,0,0,-2.3977,-2.3977,0,0,0,0,0,0,0,0,-2.4108,-2.4107,-2.4081,-2.4078,-2.4074,-2.4048,-2.4067,-2.4053,-2.4016,-2.4037,-2.4012,-2.401,-2.4002,-2.4,-2.3997,-2.4009,-2.4007,-2.3977,-2.3977,-2.3977,-2.3977,0,0,0,0,0,0,0,-2.4109,-2.4108,-2.4096,-2.4081,-2.4076,-2.4062,-2.4058,-2.4064,-2.4029,-2.4035,-2.4031,-2.4028,-2.3999,-2.3997,-2.3995,-2.4007,-2.3977,-2.3977,-2.3977,-2.3977,-2.4045,-2.4047,0,0,0,0,0,0,-2.4116,-2.4109,-2.4097,-2.4095,-2.4087,-2.4063,-2.4058,-2.4058,-2.4029,-2.4023,-2.4029,-2.4025,-2.3997,-2.3995,-2.3994,-2.4031,-2.3977,-2.3977,-2.3977,-2.4043,-2.4045,-2.4047,0,0,0,0,0,0,-2.4116,-2.4115,-2.4098,-2.4101,-2.4098,-2.4065,-2.4065,-2.4058,-2.4055,-2.4024,-2.4018,-2.4033,-2.3996,-2.3994,-2.4007,-2.4029,-2.3977,-2.3977,-2.4041,-2.4044,-2.4046,-2.4107,0,0,0,0,0,0,-2.4117,-2.4116,-2.4128,-2.4102,-2.4098,-2.4112,-2.4066,-2.4059,-2.4056,-2.405,-2.4026,-2.402,-2.3995,-2.4007,-2.4007,-2.4028,-2.3978,-2.4039,-2.4042,-2.4046,-2.4102,-2.4111,-2.4118,0,0,0,0,0,-2.4118,-2.4146,-2.4129,-2.4128,-2.4112,-2.4113,-2.4111,-2.4081,-2.4058,-2.407,-2.405,-2.4021,-2.4027,-2.4009,-2.4008,-2.403,-2.4037,-2.4042,-2.4045,-2.4099,-2.4109,-2.4118,0,0,0,0,0,0,-2.4176,-2.4142,-2.4122,-2.4143,-2.4132,-2.4103,-2.4118,-2.4093,-2.4087,-2.4082,-2.4045,-2.404,-2.4058,-2.4046,-2.4026,-2.4062,-2.4028,-2.4032,-2.4069,-2.4078,-2.4086,-2.4088,-2.3978,0,0,0,0,0,-2.4191,-2.4195,-2.4165,-2.4186,-2.4182,-2.4151,-2.415,-2.4128,-2.4115,-2.4109,-2.409,-2.4078,-2.4077,-2.4077,-2.4075,-2.4101,-2.4095,-2.4116,-2.4124,-2.413,-2.4134,-2.4147,-2.4156,-2.406,-2.406,-2.406,0,0,-2.4222,-2.4204,-2.4209,-2.4198,-2.4186,-2.4191,-2.4147,-2.4154,-2.4157,-2.411,-2.4121,-2.4107,-2.4091,-2.4111,-2.4119,-2.4101,-2.4159,-2.4135,-2.4141,-2.4141,-2.4152,-2.4161,-2.4169,-2.4063,-2.4062,-2.4062,0,0,-2.4282,-2.4269,-2.4285,-2.4275,-2.4258,-2.4237,-2.4242,-2.4217,-2.4206,-2.4217,-2.4182,-2.4186,-2.4185,-2.4175,-2.417,-2.4227,-2.42,-2.4228,-2.4268,-2.4281,-2.4289,-2.4295,-2.4315,-2.4323,-2.4231,-2.4232,-2.4232,0,-2.4323,-2.4328,-2.4296,-2.4305,-2.4301,-2.426,-2.4277,-2.4268,-2.4251,-2.425,-2.423,-2.4229,-2.4215,-2.4232,-2.4247,-2.4244,-2.4247,-2.4229,-2.429,-2.4297,-2.4302,-2.4321,-2.4329,-2.4235,-2.4235,-2.4234,-2.4234,0,-2.4379,-2.4384,-2.4399,-2.4384,-2.4382,-2.4395,-2.4365,-2.4367,-2.4346,-2.4328,-2.434,-2.4322,-2.4315,-2.4318,-2.4297,-2.4332,-2.4322,-2.4297,-2.4262,-2.4315,-2.4332,-2.4339,-2.424,-2.4239,-2.4238,-2.4237,0,0,-2.4473,-2.4441,-2.4447,-2.444,-2.4419,-2.4422,-2.4434,-2.4427,-2.4429,-2.442,-2.4428,-2.4429,-2.4407,-2.4401,-2.4379,-2.439,-2.4437,-2.4364,-2.4363,-2.4378,-2.4474,-2.4492,-2.4501,-2.4419,-2.4421,-2.4422,-2.4475,0,-2.4527,-2.4544,-2.4516,-2.454,-2.4544,-2.4505,-2.4515,-2.4504,-2.4487,-2.4488,-2.447,-2.4471,-2.4442,-2.4438,-2.4448,-2.4429,-2.4455,-2.4425,-2.4426,-2.4427,-2.443,-2.451,-2.4529,-2.458,-2.4482,-2.4483,-2.4484,0,-2.4592,-2.4586,-2.461,-2.4588,-2.4589,-2.4598,-2.4591,-2.4592,-2.4579,-2.4566,-2.4561,-2.4535,-2.4544,-2.4512,-2.4524,-2.4504,-2.4503,-2.4494,-2.4496,-2.4493,-2.4458,-2.4509,-2.4596,-2.4604,-2.4494,-2.4493,-2.4492,0,-2.4658,-2.4656,-2.4669,-2.4665,-2.464,-2.4647,-2.4637,-2.4622,-2.462,-2.4614,-2.4612,-2.4607,-2.4604,-2.4601,-2.4575,-2.4554,-2.4591,-2.4556,-2.458,-2.4581,-2.4588,-2.4588,-2.4675,-2.459,-2.459,-2.4589,-2.4589,0,-2.4721,-2.4737,-2.4698,-2.4707,-2.4724,-2.4693,-2.471,-2.4696,-2.4683,-2.4689,-2.4656,-2.4661,-2.4626,-2.4628,-2.4608,-2.4621,-2.462,-2.461,-2.4604,-2.4613,-2.4614,-2.4611,-2.4606,-2.4591,-2.4591,-2.4591,-2.459,0,-2.4796,-2.4771,-2.4783,-2.4759,-2.4754,-2.4767,-2.4746,-2.4753,-2.4736,-2.4743,-2.4743,-2.4715,-2.4715,-2.4689,-2.4684,-2.4671,-2.4693,-2.4681,-2.4697,-2.4693,-2.4719,-2.4716,-2.4806,-2.4816,-2.4725,-2.4726,-2.4727,0,-2.4837,-2.4848,-2.4826,-2.4827,-2.4819,-2.4821,-2.4819,-2.4789,-2.4789,-2.4775,-2.4784,-2.4782,-2.4778,-2.4781,-2.4761,-2.4757,-2.4744,-2.4776,-2.4743,-2.4752,-2.4744,-2.4743,-2.4744,-2.4783,-2.4784,-2.4785,-2.4785,0,-2.4913,-2.49,-2.4899,-2.4894,-2.4893,-2.4887,-2.488,-2.4883,-2.485,-2.4851,-2.4852,-2.4849,-2.4845,-2.4843,-2.4836,-2.4826,-2.48,-2.4796,-2.4801,-2.4809,-2.4818,-2.4813,-2.4715,-2.4794,-2.4793,-2.4792,-2.4792,-2.4792,-2.4972,-2.498,-2.4966,-2.4966,-2.4957,-2.4951,-2.4956,-2.4939,-2.4939,-2.4933,-2.4916,-2.4919,-2.4906,-2.4894,-2.4886,-2.4888,-2.4872,-2.488,-2.4882,-2.4884,-2.4889,-2.4819,-2.4887,-2.4887,-2.4886,-2.4886,-2.4886,0,-2.5046,-2.5035,-2.5035,-2.5025,-2.5026,-2.5002,-2.4993,-2.4994,-2.4998,-2.4988,-2.4986,-2.4986,-2.4985,-2.4965,-2.4961,-2.4967,-2.4955,-2.4967,-2.4966,-2.4964,-2.4903,-2.4899,-2.4976,-2.4976,-2.4976,-2.4976,-2.4976,-2.4976,-2.5084,-2.5097,-2.5083,-2.5091,-2.508,-2.5084,-2.508,-2.5074,-2.5066,-2.5069,-2.5067,-2.5054,-2.504,-2.5035,-2.5033,-2.5027,-2.5027,-2.5043,-2.5033,-2.4977,-2.4968,-2.4959,-2.4955,-2.5043,-2.5043,-2.5093,-2.5093,-2.5094]},{"header":{"parameterUnit":"m.s-1","parameterCategory":1,"la1":30.2991,"la2":30.254,"lo1":-89.0895,"lo2":-89.0444,"dy":0.0017,"dx":0.0017,"nx":28,"ny":28,"refTime":"2024-04-14T09:00:00:Z","depth":0,"parameterNumber":3,"parameterNumberName":"V-component_of_WINDS"},"data":[0,0,0,0,0,0,0,0,0,0,0,0,0,0,0,0,0,0,0,0,0,0,0,0,0,0,0,0,0,0,0,0,0,0,0,0,0,0,0,0,0,0,0,0,0,0,0,0,0,0,0,0,0,0,0,0,0,0,3.4214,3.4214,0,3.4224,3.4224,3.4224,3.4231,3.4231,3.4231,3.4231,3.4241,3.4241,3.4241,0,0,0,0,0,0,0,0,0,0,0,0,0,3.4202,3.4202,3.4214,3.4214,3.4214,3.4224,3.4224,3.4224,3.4231,3.4231,3.4231,3.4231,3.4241,3.4241,3.4241,0,0,0,0,0,0,0,0,0,0,0,0,0,3.4209,3.4202,3.4214,3.4219,3.4219,3.4224,3.4224,3.4224,3.4231,3.4231,3.4231,3.4231,3.424,3.4241,3.4241,3.4241,0,0,3.4242,3.4242,0,0,0,0,0,0,0,0,3.4209,3.4209,3.4218,3.4218,3.4219,3.4226,3.4223,3.423,3.4231,3.4226,3.4231,3.4231,3.4236,3.4236,3.4238,3.4241,3.4242,3.4242,3.4242,3.4242,3.4242,0,0,0,0,0,0,0,3.4208,3.4209,3.4218,3.4218,3.4219,3.4221,3.4222,3.4224,3.423,3.4227,3.4227,3.4229,3.4236,3.4238,3.4238,3.4242,3.4242,3.4242,3.4242,3.4242,3.4249,3.4249,0,0,0,0,0,0,3.4207,3.4209,3.4217,3.4218,3.4214,3.4221,3.4222,3.4224,3.423,3.4232,3.4228,3.4229,3.4237,3.4238,3.4239,3.4241,3.4242,3.4243,3.4243,3.4249,3.4249,3.4249,0,0,0,0,0,0,3.4207,3.4207,3.4217,3.4213,3.4215,3.4221,3.4223,3.4224,3.4226,3.4232,3.4233,3.4229,3.4237,3.4238,3.4241,3.4241,3.4243,3.4243,3.4249,3.4249,3.4249,3.4243,0,0,0,0,0,0,3.4206,3.4207,3.4207,3.4213,3.4215,3.4219,3.4223,3.4224,3.4226,3.4227,3.4232,3.4233,3.4237,3.4241,3.4241,3.4241,3.4243,3.4249,3.4249,3.4249,3.4244,3.4243,3.4243,0,0,0,0,0,3.4206,3.4204,3.4207,3.4208,3.4214,3.4218,3.4219,3.4224,3.4226,3.4226,3.4231,3.4233,3.4241,3.4241,3.4242,3.4242,3.4249,3.4249,3.4249,3.4244,3.4243,3.4243,0,0,0,0,0,0,3.4197,3.4205,3.4208,3.4209,3.4213,3.422,3.422,3.4223,3.4227,3.4227,3.4233,3.4234,3.4237,3.424,3.4239,3.4244,3.4245,3.4245,3.4241,3.4241,3.4241,3.424,3.4243,0,0,0,0,0,3.4195,3.4197,3.4205,3.4205,3.4207,3.4213,3.4215,3.4218,3.4223,3.4225,3.4229,3.4233,3.4237,3.4239,3.4243,3.4244,3.4247,3.4245,3.4245,3.4245,3.4245,3.4248,3.4248,3.4248,3.4248,3.4248,0,0,3.4191,3.4196,3.4197,3.4203,3.4207,3.421,3.4214,3.4217,3.4219,3.4225,3.4228,3.4232,3.4237,3.424,3.4242,3.4243,3.4245,3.4245,3.4244,3.4244,3.4248,3.4248,3.4248,3.4248,3.4248,3.4248,0,0,3.4185,3.4189,3.419,3.4194,3.4201,3.4205,3.4206,3.4213,3.4215,3.4219,3.4224,3.4228,3.4233,3.4237,3.424,3.424,3.4243,3.4241,3.4239,3.4242,3.4242,3.4242,3.4243,3.4243,3.4241,3.4241,3.4241,0,3.4179,3.4184,3.419,3.4193,3.4196,3.4203,3.4205,3.4209,3.4216,3.4218,3.4219,3.4228,3.4232,3.4237,3.4237,3.4239,3.4241,3.424,3.4241,3.4241,3.4241,3.4243,3.4243,3.4241,3.4241,3.4241,3.4241,0,3.4177,3.4181,3.4181,3.4189,3.4192,3.4194,3.4202,3.4205,3.4209,3.4214,3.4218,3.4224,3.423,3.4231,3.4234,3.4237,3.4238,3.424,3.4242,3.4241,3.4242,3.4243,3.424,3.424,3.424,3.424,0,0,3.4164,3.4178,3.4178,3.4182,3.4191,3.4194,3.4197,3.4204,3.4207,3.4212,3.4216,3.4222,3.4225,3.4228,3.4232,3.4235,3.4236,3.4237,3.4238,3.4238,3.4242,3.424,3.4241,3.4239,3.4239,3.4239,3.4242,0,3.4161,3.4167,3.4174,3.4179,3.4183,3.4191,3.4194,3.42,3.4206,3.421,3.4216,3.4221,3.4224,3.4226,3.4229,3.4236,3.4237,3.4235,3.4243,3.4244,3.4242,3.4241,3.4239,3.4241,3.4242,3.4242,3.4242,0,3.4157,3.4163,3.4168,3.4179,3.4181,3.4183,3.4191,3.4195,3.4203,3.4207,3.4213,3.4218,3.4223,3.4225,3.4233,3.4232,3.4236,3.424,3.424,3.4241,3.4243,3.4243,3.4242,3.4242,3.4243,3.4243,3.4243,0,3.4148,3.4158,3.4163,3.4166,3.4178,3.4181,3.4186,3.4194,3.4198,3.4205,3.4208,3.4215,3.4219,3.4225,3.4233,3.4234,3.4241,3.4243,3.4245,3.4245,3.4246,3.4246,3.4246,3.4248,3.4248,3.4248,3.4248,0,3.4143,3.4146,3.4159,3.4162,3.4167,3.4176,3.418,3.4186,3.4194,3.4199,3.4206,3.421,3.422,3.4226,3.4232,3.4239,3.4241,3.4244,3.4246,3.4244,3.4244,3.4247,3.4247,3.4248,3.4248,3.4248,3.4248,0,3.4134,3.4143,3.4149,3.4161,3.4164,3.4167,3.4177,3.4181,3.4188,3.4194,3.4196,3.4207,3.4215,3.4223,3.4233,3.4238,3.4245,3.4247,3.4242,3.4243,3.4245,3.4245,3.4248,3.4249,3.4249,3.4249,3.4249,0,3.413,3.4133,3.4146,3.415,3.4156,3.4162,3.4167,3.4177,3.4182,3.4193,3.4195,3.4204,3.4212,3.4224,3.4233,3.4242,3.4244,3.4245,3.4245,3.4244,3.4246,3.4245,3.4247,3.4244,3.4244,3.4244,3.4244,0,3.4123,3.4128,3.4135,3.4144,3.4151,3.4158,3.4166,3.4169,3.418,3.4186,3.4195,3.4201,3.4213,3.4222,3.4232,3.4238,3.4243,3.4244,3.4245,3.4243,3.4241,3.4243,3.4242,3.4244,3.4244,3.4244,3.4244,3.4244,3.4117,3.4121,3.4132,3.414,3.4147,3.4155,3.416,3.4168,3.4176,3.4186,3.4192,3.4201,3.4211,3.4226,3.4232,3.424,3.4241,3.4243,3.4243,3.4243,3.4244,3.424,3.4242,3.4242,3.4242,3.4242,3.4242,0,3.4112,3.4119,3.4127,3.4139,3.4146,3.4151,3.4161,3.4166,3.4174,3.4184,3.4192,3.4203,3.4213,3.4223,3.4234,3.4238,3.4241,3.4241,3.4241,3.4242,3.4241,3.4239,3.4238,3.4238,3.4238,3.4238,3.4238,3.4238,3.4109,3.4117,3.4123,3.4135,3.4143,3.4152,3.4158,3.4166,3.4174,3.4186,3.4194,3.4202,3.4212,3.4224,3.4233,3.4236,3.424,3.4239,3.4243,3.4242,3.4242,3.4242,3.4241,3.424,3.424,3.4244,3.4244,3.4244]}]]